Location: Unspecified
(49.2170°N, 0.0000°E)
Time: 09:11:48
(UTC+00:00)

A-11 Canister half - Pass Details

Date: 22 June 2019
Orbit: 1526 x 1683 km, 47.3° (Epoch: 16 August)

Event Time Altitude Azimuth Distance (km) Brightness Sun altitude
Rises 11:01:48 0° 289° (WNW) 4,682 11.3 61.6°
Reaches altitude 10° 11:05:11 10° 280° (W) 3,697 10.9 61.9°
Maximum altitude 11:13:09 34° 221° (SW) 2,341 10.7 62.5°
Drops below altitude 10° 11:21:13 10° 162° (SSE) 3,735 11.6 63.0°
Sets 11:24:40 0° 153° (SSE) 4,736 12.0 63.2°
